User: anonymous   Login
Location: Unspecified
(0.0000°N, 0.0000°E)
Time: 23:10:18
(UTC+01:00)
Language:

Cosmos 1092 Rocket - Orbit

View from above orbital plane
View from above orbital plane
View from above satellite
View from above satellite

Ground track
Ground track

The orbit data is extracted from the following two-line orbital elements,

1 11327U 79030B   17081.89015840 +.00000030 +00000-0 +14857-4 0  9997
2 11327 082.9536 359.9353 0029001 062.3776 341.2995 13.76971123907053
Epoch (UTC): 22 March 2017 21:21:49
Eccentricity: 0.0029001
inclination: 82.9536°
perigee height: 953 km
apogee height: 996 km
right ascension of ascending node: 359.9353°
argument of perigee: 62.3776°
revolutions per day: 13.76971123
mean anomaly at epoch: 341.2995°
orbit number at epoch: 90705

The dashed part of the orbit path shows where the satellite is in the earth's shadow,  

DLR